Regional Weather Roundup
Issued by NWS State College, PA

Home | Current Version | Previous Version | Graphics & Text | Print | Product List | Glossary On
Versions: 1 2 3 4 5 6 7 8 9 10 11 12 13 14 15 16 17 18 19 20 21 22 23 24 25 26 27 28 29 30 31 32 33 34 35 36 37 38 39 40 41 42 43 44 45 46 47 48 49 50
000
ASUS41 KCTP 011810
RWRCTP

REGIONAL WEATHER ROUNDUP
NATIONAL WEATHER SERVICE STATE COLLEGE PA
200 PM EDT SAT AUG 01 2015

Note: "fair" indicates few or no clouds below 12,000 feet with no
significant weather and/or obstructions to visibility.

* = STATION THAT DOES NOT REPORT PRECIPITATION /E.G. RAIN...SNOW...ETC/
    THUNDER OR FOG.

PAZ002>004-007>009-013>016-020>023-029>032-011900-
WESTERN PENNSYLVANIA

CITY           SKY/WX    TMP DP  RH WIND       PRES   REMARKS
ERIE           SUNNY     77  56  48 W13G21    29.91F
MEADVILLE      PTSUNNY   81  52  36 W10G20    29.93F
FRANKLIN*      PTSUNNY   73  52  46 W6        29.94F
NEW CASTLE     MOCLDY    78  58  50 CALM      29.94S
BEAVER COUNTY  MOSUNNY   81  54  39 W8        29.94
BUTLER*        MOSUNNY   81  55  41 W8        29.95S
PITTSBURGH INT MOSUNNY   80  53  39 NW15      29.94F
PITTSBURGH     PTSUNNY   81  48  31 W14G20    29.93F
INDIANA*       PTSUNNY   77  57  50 NW8       29.97S
LATROBE        PTSUNNY   77  54  44 VRB7      29.94F
WASHINGTON CO* NOT AVBL
$$

PAZ004>006-010>012-017>019-024>028-033>037-041-042-045-046-049>053-011900-
CENTRAL PENNSYLVANIA

CITY           SKY/WX    TMP DP  RH WIND       PRES   REMARKS
BRADFORD       MOSUNNY   72  52  49 W13       29.94S
DUBOIS         SUNNY     78  53  41 W12       29.93F
CLEARFIELD     PTSUNNY   78  52  40 W9        29.93F
JOHNSTOWN      CLOUDY    76  53  44 W14G20    29.97F
ALTOONA        CLOUDY    78  55  44 VRB7      29.94F
STATE COLLEGE  PTSUNNY   75  55  50 NW7       29.92S
WILLIAMSPORT   PTSUNNY   81  54  39 NW9       29.85S
SELINSGROVE    MOSUNNY   85  59  41 W6G18     29.86F
FT INDIANTOWN  SUNNY     84  56  38 W8        29.86F
CAPITAL CITY   SUNNY     86  49  27 W6G20     29.86F
HARRISBURG     MOSUNNY   87  53  31 NW10      29.85F
YORK           SUNNY     82  62  50 SW6       29.87F
$$

PAZ038>040-043-044-047-048-054-055-060>062-067>071-011900-
EASTERN PENNSYLVANIA

CITY           SKY/WX    TMP DP  RH WIND       PRES   REMARKS
SCRANTON       PTSUNNY   81  57  43 W5        29.85F
MOUNT POCONO   CLOUDY    71  59  65 NW3       29.90S
ALLENTOWN      SUNNY     84  60  44 W13       29.83F
QUAKERTOWN*    CLEAR     84  59  42 W12       29.85F
READING        MOSUNNY   86  54  33 W12       29.84F
LANCASTER      PTSUNNY   83  57  41 W14       29.86F
COATESVILLE    PTCLDY    84  59  42 W12G18    29.88F
POTTSTOWN      SUNNY     84  55  36 W8G24     29.86F
BLUE BELL      MOSUNNY   86  61  42 W7G23     29.83F
DOYLESTOWN     SUNNY     84  55  36 SW10G21   29.83F
WILLOW GROVE   NOT AVBL
NORTH PHILA    PTSUNNY   91  53  27 W20       29.84F
PHILADELPHIA   PTSUNNY   88  55  32 W13G23    29.84F
$$


USA.gov is the U.S. government's official web portal to all federal, state and local government web resources and services.